Weather History for Muncie, IN

Change the Weather History Date:

Wednesday, January 22, 2014

  Actual Average Record
Temperature  
Mean Temperature 4 °F 26 °F  
Max Temperature 15 °F 34 °F 60 °F (1964)
Min Temperature -8 °F 19 °F -19 °F (1984)
Degree Days  
Heating Degree Days 61 39  
Month to date heating degree days 861 849  
Since 1 July heating degree days 3201 3047  
Cooling Degree Days 0 0  
Month to date cooling degree days 0 0  
Year to date cooling degree days 0 0  
Moisture  
Dew Point 3 °F    
Average Humidity 78    
Maximum Humidity 90    
Minimum Humidity 66    
Precipitation  
Precipitation T in 0.07 in 0.57 in (1973)
Month to date precipitation 0.51 1.56  
Year to date precipitation 0.51 1.56  
Sea Level Pressure  
Sea Level Pressure 30.04 in    
Wind  
Wind Speed 9 mph (SW)    
Max Wind Speed 30 mph    
Max Gust Speed 39 mph    
Visibility 4 miles    
Events Fog , Snow    
T = Trace of Precipitation, MM = Missing Value Source: NWS Daily Summary

Daily Weather History Graph

Daily Weather History Graph

Search for Another Location

Airport:

Trip Planner

Search our weather history database for the weather conditions in past years. The results will help you decide how hot, cold, wet, or windy it might be!

Date:

Astronomy

Jan. 22, 2014 Rise Set
Actual Time 7:58 AM EST 5:48 PM EST
Civil Twilight 7:29 AM EST 6:17 PM EST
Nautical Twilight 6:56 AM EST 6:50 PM EST
Astronomical Twilight 6:23 AM EST 7:23 PM EST
Moon No Moon Rise 10:58 AM EST (1/22)
Length of Visible Light 10h 48m
Length of Day
9h 49m
Waning Gibbous, 65% of the Moon is Illuminated
Jan 22
Waning Gibbous
Jan 24
Last Quarter
Jan 30
New
Feb 6
First Quarter
Feb 14
Full

Hourly Weather History & Observations

Time (EST) Temp. Windchill Dew Point Humidity Pressure Visibility Wind Dir Wind Speed Gust Speed Precip Events Conditions
12:53 AM -7.1 °F - -9.9 °F 87% 30.24 in 10.0 mi Calm Calm - N/A   Clear
1:53 AM -4.0 °F - -9.9 °F 76% 30.22 in 10.0 mi Calm Calm - N/A   Clear
2:53 AM -4.0 °F -14.6 °F -9.0 °F 79% 30.22 in 10.0 mi SW 4.6 mph - N/A   Scattered Clouds
3:53 AM -2.0 °F -12.2 °F -7.1 °F 79% 30.20 in 10.0 mi SW 4.6 mph - N/A   Clear
4:53 AM -5.1 °F - -9.9 °F 80% 30.18 in 9.0 mi Calm Calm - N/A   Clear
5:53 AM -4.0 °F -12.4 °F -7.1 °F 87% 30.17 in 8.0 mi South 3.5 mph - N/A   Clear
6:53 AM -7.1 °F -18.1 °F -11.0 °F 83% 30.16 in 7.0 mi SSE 4.6 mph - N/A   Clear
7:53 AM -0.9 °F -8.9 °F -6.0 °F 79% 30.16 in 7.0 mi South 3.5 mph - N/A   Overcast
8:53 AM 1.9 °F -10.6 °F -2.0 °F 83% 30.13 in 9.0 mi South 6.9 mph - N/A   Overcast
9:53 AM 5.0 °F -9.1 °F -0.0 °F 80% 30.12 in 10.0 mi South 9.2 mph - N/A   Overcast
10:53 AM 7.0 °F -5.7 °F 1.9 °F 80% 30.13 in 10.0 mi SSW 8.1 mph - N/A   Overcast
11:53 AM 9.0 °F -5.1 °F 1.9 °F 73% 30.11 in 10.0 mi SSW 10.4 mph - N/A   Overcast
12:53 PM 10.0 °F -6.5 °F 1.0 °F 67% 30.05 in 10.0 mi SSW 15.0 mph 23.0 mph N/A   Overcast
1:53 PM 10.9 °F -0.8 °F 1.0 °F 64% 30.02 in 10.0 mi SSW 8.1 mph 23.0 mph N/A   Overcast
2:53 PM 10.9 °F -4.1 °F 1.9 °F 67% 30.00 in 2.0 mi SSW 12.7 mph 20.7 mph 0.00 in Snow Light Snow
3:07 PM 10.9 °F -3.4 °F 3.0 °F 70% 29.94 in 1.8 mi SW 11.5 mph - 0.00 in Snow Light Snow
3:17 PM 10.9 °F -4.1 °F 3.0 °F 70% 29.94 in 2.0 mi SW 12.7 mph - 0.00 in Snow Light Snow
3:53 PM 10.9 °F -4.1 °F 3.0 °F 70% 30.00 in 3.0 mi SW 12.7 mph - 0.00 in Snow Light Snow
4:53 PM 10.9 °F -3.4 °F 3.9 °F 73% 30.01 in 2.0 mi SSW 11.5 mph - 0.00 in Snow Light Snow
5:04 PM 10.9 °F -4.1 °F 5.0 °F 77% 29.95 in 1.5 mi SSW 12.7 mph - 0.00 in Snow Light Snow
5:11 PM 10.9 °F -3.4 °F 5.0 °F 77% 29.95 in 1.2 mi SW 11.5 mph - 0.00 in Snow Light Snow
5:53 PM 10.9 °F -3.4 °F 6.1 °F 81% 30.02 in 1.5 mi SSW 11.5 mph - 0.00 in Snow Light Snow
6:16 PM 10.9 °F -2.6 °F 6.1 °F 81% 29.97 in 2.0 mi SSW 10.4 mph - 0.00 in Snow Light Snow
6:53 PM 12.0 °F -2.0 °F 7.0 °F 80% 30.02 in 2.0 mi SSW 11.5 mph - 0.00 in Snow Light Snow
7:08 PM 12.0 °F -2.0 °F 7.0 °F 80% 29.96 in 3.0 mi SSW 11.5 mph - 0.00 in Snow Light Snow
7:23 PM 12.0 °F -2.0 °F 8.1 °F 84% 29.96 in 2.5 mi SSW 11.5 mph - 0.00 in Snow Light Snow
7:34 PM 12.0 °F -0.4 °F 8.1 °F 84% 29.96 in 1.5 mi SSW 9.2 mph - 0.00 in Snow Light Snow
7:53 PM 12.9 °F -0.9 °F 8.1 °F 81% 30.01 in 1.2 mi SSW 11.5 mph - 0.00 in Snow Light Snow
8:53 PM 14.0 °F 1.2 °F 10.0 °F 84% 30.00 in 1.5 mi SSW 10.4 mph - 0.00 in Snow Light Snow
9:11 PM 14.0 °F 1.2 °F 10.0 °F 84% 29.95 in 0.8 mi SSW 10.4 mph - 0.00 in Snow Light Snow
9:29 PM 14.0 °F 1.2 °F 10.0 °F 84% 29.95 in 1.2 mi SSW 10.4 mph - 0.00 in Snow Light Snow
9:37 PM 14.0 °F 1.2 °F 10.9 °F 88% 29.96 in 0.8 mi SW 10.4 mph - 0.00 in Snow Light Snow
9:50 PM 12.2 °F -6.7 °F 8.6 °F 85% 29.97 in 0.2 mi WNW 21.9 mph 39.1 mph 0.00 in Fog , Snow Light Snow
9:53 PM 12.9 °F -4.4 °F 8.1 °F 81% 30.03 in 0.5 mi WNW 18.4 mph 35.7 mph 0.00 in Snow Snow
9:56 PM 12.9 °F -4.9 °F 7.0 °F 77% 29.98 in 1.0 mi WNW 19.6 mph 28.8 mph 0.00 in Snow Light Snow
10:00 PM 12.9 °F -3.9 °F 7.0 °F 77% 29.98 in 3.0 mi WNW 17.3 mph - 0.00 in Snow Light Snow
10:15 PM 12.0 °F -4.0 °F 7.0 °F 80% 30.00 in 2.5 mi WNW 15.0 mph - 0.00 in Snow Light Snow
10:17 PM 12.0 °F -4.0 °F 7.0 °F 80% 30.00 in 1.8 mi WNW 15.0 mph - 0.00 in Snow Light Snow
10:30 PM 10.9 °F -5.4 °F 6.1 °F 81% 30.00 in 2.5 mi WNW 15.0 mph 20.7 mph 0.00 in Snow Light Snow
10:36 PM 10.9 °F -5.4 °F 6.1 °F 81% 30.00 in 3.0 mi West 15.0 mph - 0.00 in Snow Light Snow
10:53 PM 9.0 °F -7.9 °F 5.0 °F 84% 30.06 in 6.0 mi West 15.0 mph - 0.00 in   Overcast
11:17 PM 8.1 °F -7.7 °F 3.9 °F 83% 30.01 in 2.5 mi West 12.7 mph - N/A   Overcast
11:51 PM 6.8 °F -10.0 °F 3.2 °F 85% 30.04 in 4.0 mi West 13.8 mph - 0.00 in Snow Light Snow
11:53 PM 7.0 °F -9.1 °F 3.0 °F 84% 30.09 in 4.0 mi West 12.7 mph - 0.00 in   Overcast